RH
69 61 56 50 45 47 44 40 43 36 30 25 30 23 23 31 42 44 77 78 71 75 71 76 87 87 86 87 88 87 86 84 82 78 74 73 71 70 68 68 68 66 65 64 64 66 67 69 69
68 57 54 55 47 48 42 43 44 36 34 37 29 42 49 43 74 86 86 80 71 74 72 72 88 87 87 88 88 88 86 85 82 80 76 74 72 72 69 69 69 66 64 63 66 67 68 69 68
64 60 57 55 52 44 38 43 38 38 37 30 31 37 54 58 83 77 75 78 70 76 73 76 88 87 89 87 87 88 86 86 84 83 81 79 74 74 71 72 72 68 66 67 69 73 74 75 75
65 70 59 60 53 47 36 41 45 40 37 36 36 36 59 72 78 74 77 74 77 78 73 87 90 90 89 87 86 88 87 84 82 83 81 76 74 77 74 75 78 77 73 70 72 74 74 76 78
67 77 80 79 61 51 47 41 42 42 40 38 38 47 68 81 83 82 75 75 77 80 75 78 91 90 91 90 90 89 87 84 81 79 78 75 73 74 82 81 81 77 72 68 72 73 74 75 78
88 78 77 76 62 55 45 42 40 40 42 37 38 45 74 82 80 87 78 77 71 80 77 76 91 92 92 91 90 89 87 84 83 82 77 74 71 74 82 82 81 76 72 69 72 73 73 73 76
77 83 82 60 60 58 52 40 40 42 40 41 38 58 59 82 87 82 82 76 74 76 75 77 75 84 94 93 92 89 86 86 83 81 79 80 79 78 80 86 82 77 77 74 73 72 73 72 74
82 80 73 69 63 59 44 39 39 36 42 38 38 47 47 74 87 91 81 69 74 81 76 75 79 76 76 78 92 88 86 85 83 85 87 88 86 84 83 89 86 84 84 82 80 74 74 75 74
77 91 76 66 66 53 41 42 42 42 45 43 47 65 66 80 87 94 93 92 88 77 76 79 83 79 78 76 79 85 87 86 86 84 91 85 72 71 73 88 92 88 88 84 81 79 80 85 84
87 80 69 59 55 52 43 42 48 44 48 48 46 48 50 78 92 95 94 94 94 86 77 82 84 80 78 75 71 66 64 62 63 67 70 69 75 71 74 83 93 88 89 87 83 83 87 78 62
79 78 62 57 53 47 52 56 47 47 51 43 42 50 50 57 75 93 91 90 90 82 81 82 81 83 77 75 72 67 66 67 67 67 69 71 73 74 71 73 87 81 87 71 74 76 71 71 60
85 70 62 58 59 61 61 56 55 51 43 43 48 48 48 52 60 70 86 89 86 86 81 84 80 88 80 75 72 68 69 70 69 68 67 68 73 76 76 76 80 80 76 77 76 74 74 72 68
87 69 63 56 65 62 60 61 53 56 54 54 54 56 54 52 54 63 71 86 84 85 74 80 84 90 81 78 75 70 68 69 68 71 68 64 71 72 74 76 78 80 79 75 76 73 71 72 68
74 68 66 64 59 62 59 59 54 48 49 53 50 53 57 52 52 64 83 86 84 86 80 73 88 87 82 78 77 72 72 68 72 71 70 69 63 67 73 74 76 78 78 76 73 71 71 71 70
71 74 76 74 65 59 52 66 65 49 64 56 55 50 54 54 49 45 78 85 83 85 86 83 86 91 83 79 77 77 78 73 75 72 70 71 69 67 67 70 72 71 72 75 76 74 73 73 71
80 74 89 67 66 58 54 70 53 50 62 53 55 51 52 53 48 46 65 83 86 87 92 91 88 91 86 80 79 77 76 74 73 73 72 72 70 70 66 64 66 66 70 73 75 74 74 74 70
82 88 81 78 69 62 59 68 49 55 68 53 59 48 51 53 46 36 53 79 84 86 87 91 91 92 90 86 79 80 78 76 74 75 75 74 72 72 70 67 64 65 70 72 74 75 74 71 70
80 80 78 75 78 64 68 62 52 63 67 54 66 56 53 53 50 38 40 74 84 88 88 86 90 88 91 91 90 83 82 81 76 80 76 76 74 74 74 72 70 70 73 73 76 75 75 71 68
64 80 76 70 70 67 65 66 56 67 74 68 71 69 61 52 48 35 31 47 79 83 93 93 91 94 95 93 93 92 90 88 84 80 79 77 75 77 77 75 73 73 73 69 68 70 72 71 72
64 79 78 73 67 70 69 67 60 57 73 69 66 67 57 52 48 40 33 30 34 71 85 91 90 89 89 92 91 90 91 91 87 87 80 78 78 81 80 77 77 74 73 72 71 72 74 73 74
75 78 84 74 72 67 73 76 68 60 52 56 57 61 52 44 44 40 35 33 37 39 61 85 88 89 88 89 90 90 91 91 92 89 88 85 81 82 82 81 78 80 79 83 78 80 79 80 86
85 62 65 78 76 78 69 77 70 64 62 55 50 49 54 48 44 38 37 35 39 40 47 52 77 88 90 90 88 87 89 90 87 86 88 88 84 81 81 81 80 80 85 83 86 84 82 82 84
96 55 62 72 79 76 78 79 66 62 65 58 54 51 44 42 41 39 39 43 44 56 54 52 51 49 49 74 90 90 90 88 87 86 86 85 87 88 88 85 83 83 85 83 84 86 85 85 86
92 74 76 83 81 94 76 78 68 63 54 52 47 48 45 42 38 37 44 56 59 62 57 61 60 60 52 49 50 68 85 87 91 90 89 88 87 87 89 91 90 89 87 86 85 85 87 87 88
99 79 96 95 96 86 76 86 62 58 53 45 44 45 46 45 41 40 47 61 65 64 68 67 66 71 68 65 63 57 53 53 62 69 71 69 70 78 83 88 90 93 92 91 89 90 92 92 93
81 78 89 92 90 86 84 91 59 52 51 45 46 40 42 52 48 45 51 60 65 71 71 71 72 73 73 74 77 79 79 74 76 76 76 82 84 83 84 86 90 91 90 90 91 93 95 95 97
98 94 68 86 80 83 76 66 47 50 50 49 47 49 48 46 51 50 58 65 68 73 73 74 76 79 78 80 79 81 80 82 84 85 85 86 85 82 84 85 87 90 95 96 97 97 97 96 95
96 78 90 92 93 86 70 67 49 46 44 44 47 52 53 61 64 72 73 72 73 72 74 77 76 78 81 78 75 76 76 75 74 72 76 80 79 79 80 83 86 86 89 92 94 95 92 93 93
97 99 88 81 83 80 76 53 48 48 44 43 45 54 61 73 81 82 76 73 75 76 77 80 77 77 74 71 69 67 66 65 65 66 66 68 67 68 71 73 77 81 84 85 83 84 83 85 87
86 85 76 89 95 88 84 59 41 45 50 53 53 66 73 78 83 80 76 75 77 78 80 81 78 74 71 69 67 66 66 66 66 67 68 66 68 68 70 72 77 79 80 79 78 80 80 80 81
Wind_Speed
3 3 2 3 2 2 3 4 1 2 3 2 1 4 3 2 5 3 1 5 15 19 17 19 19 17 16 17 16 16 15 15 14 14 14 14 14 15 15 15 14 14 14 15 16 16 16 16 16
1 2 3 3 3 4 4 3 5 3 2 7 3 2 2 2 1 3 11 7 17 18 17 17 19 17 16 17 16 16 16 15 14 13 13 13 13 14 14 15 14 14 14 15 16 16 15 14 13
3 2 3 3 3 8 5 5 5 2 1 2 2 1 1 3 1 9 1 14 20 17 16 15 18 17 16 15 17 15 14 14 14 13 12 12 12 13 14 14 14 14 14 14 15 15 14 13 11
2 1 3 3 8 4 4 6 5 3 2 5 3 3 1 3 1 4 11 18 18 17 16 17 17 17 15 13 15 14 13 15 14 13 11 11 10 9 14 14 13 13 12 13 14 13 12 12 12
2 1 3 3 5 3 3 6 4 4 3 3 3 3 1 4 4 9 15 14 16 16 15 16 16 18 16 13 13 13 13 14 15 14 14 11 10 9 10 14 13 12 12 12 12 12 12 12 11
3 0 5 11 11 4 3 6 4 3 0 2 4 4 3 3 3 8 13 16 14 14 14 14 15 16 16 14 12 12 11 12 13 14 13 9 9 8 8 13 12 12 11 11 11 10 10 11 11
4 4 6 15 12 6 6 8 7 6 3 2 3 3 3 3 1 6 10 13 14 12 14 13 14 14 12 12 11 12 13 15 14 15 13 10 6 6 8 10 11 11 10 10 9 9 9 10 10
2 2 11 8 14 15 6 6 8 6 3 1 2 4 2 4 4 4 6 10 10 10 12 13 12 13 13 12 13 13 12 14 12 13 12 11 11 5 7 5 10 9 10 9 8 9 9 9 9
2 3 12 19 13 8 4 7 2 2 6 2 4 4 5 8 7 5 5 6 7 11 11 10 11 12 12 12 12 12 11 11 10 10 8 8 5 5 9 5 7 10 10 9 8 8 9 9 8
5 9 10 2 6 6 5 5 8 5 4 2 3 2 12 11 6 7 7 7 7 11 11 8 11 12 12 10 12 10 9 7 7 7 7 5 5 4 5 5 8 10 8 8 7 7 8 5 3
5 8 5 3 6 5 6 5 5 8 5 7 8 6 10 10 6 4 4 6 6 8 6 8 11 10 11 10 8 6 5 5 5 8 7 6 4 3 4 3 4 5 6 3 4 4 2 4 2
4 7 3 1 2 5 6 6 5 7 4 7 8 7 9 6 6 5 7 7 9 8 8 8 10 10 10 8 7 8 6 5 5 6 8 6 4 4 4 4 4 4 3 4 2 1 1 2 3
5 4 6 3 3 3 7 5 4 6 8 7 5 4 11 4 4 5 7 6 9 9 12 10 9 9 10 10 7 7 7 6 6 6 7 6 5 5 4 4 4 3 3 3 3 2 1 1 1
8 5 7 4 3 2 5 3 4 3 6 9 8 4 6 6 6 6 6 10 11 8 12 14 10 10 11 9 10 8 6 7 6 6 6 7 5 5 5 5 5 4 4 4 3 3 2 3 3
3 12 1 4 6 4 4 3 7 1 3 7 9 9 7 3 6 8 6 10 13 12 10 13 10 9 13 11 10 8 7 7 6 6 8 8 7 7 7 5 5 5 4 5 4 3 3 3 3
5 5 7 5 7 4 5 9 4 5 4 7 9 7 6 2 4 7 8 10 10 11 13 11 10 12 13 12 9 7 7 7 7 7 7 9 9 8 6 5 6 5 4 4 4 4 4 4 4
9 9 13 4 7 3 4 2 3 4 5 7 6 9 5 2 5 5 7 9 9 11 12 12 9 12 13 12 8 8 9 7 7 6 7 9 10 9 7 6 6 6 5 5 5 4 4 4 4
17 8 9 9 6 4 5 4 2 5 7 9 6 5 8 4 7 5 4 5 5 6 6 8 7 6 8 5 5 5 5 5 6 6 7 9 8 10 9 7 8 6 5 5 5 7 5 5 4
13 6 11 5 4 6 8 5 7 4 5 8 7 7 5 9 7 5 5 4 5 4 6 8 9 8 6 3 4 4 6 5 5 7 10 9 9 9 10 8 8 7 8 9 8 5 6 5 4
14 8 4 3 3 5 6 9 8 6 9 10 10 8 8 5 4 5 4 3 1 3 5 7 7 8 7 5 2 3 3 4 4 5 7 9 9 9 9 9 8 9 6 8 8 8 3 3 5
8 12 5 7 4 3 6 6 7 4 4 7 9 9 8 13 9 5 6 2 2 4 4 5 7 9 7 7 5 3 2 1 2 3 4 6 9 9 10 10 9 7 7 7 8 8 9 6 4
7 12 8 13 10 6 1 4 5 8 8 9 15 11 11 11 6 2 2 4 3 2 2 2 5 6 7 9 7 7 5 4 3 2 2 3 8 9 9 9 9 9 7 8 8 7 8 7 7
5 15 7 4 5 3 1 2 5 1 13 13 11 11 13 10 8 8 6 4 3 3 3 3 4 3 3 4 5 6 6 3 1 2 4 3 4 7 8 9 9 9 7 8 9 7 9 7 5
8 11 10 4 3 2 5 5 4 5 8 11 14 16 16 15 13 10 5 6 3 2 3 4 6 4 3 4 3 5 6 5 3 3 3 3 3 3 6 7 8 8 8 8 7 8 8 8 7
14 17 7 4 4 5 1 5 7 5 6 7 10 14 13 14 14 13 10 9 8 6 5 4 7 7 4 5 5 3 3 3 3 2 2 2 2 1 2 3 6 6 7 8 7 7 7 7 6
16 6 5 8 6 4 2 6 7 6 6 6 5 4 3 7 7 10 11 10 10 11 7 7 6 7 7 7 6 5 5 3 3 2 0 1 1 2 3 4 3 5 6 6 6 4 4 4 3
1 2 3 7 3 3 3 5 8 6 7 3 7 6 7 7 7 10 10 10 10 9 9 8 9 6 5 6 6 6 6 6 5 5 4 3 3 2 3 3 3 4 3 1 4 4 5 5 5
4 3 3 3 5 2 0 3 4 4 2 5 4 7 6 4 7 8 9 10 6 8 7 7 8 8 6 6 6 5 6 5 5 4 5 4 4 4 4 4 5 5 6 5 6 5 5 7 4
2 2 4 5 3 4 3 4 5 3 3 7 7 6 6 5 6 8 9 8 6 6 7 6 6 8 8 7 6 6 6 5 5 5 4 4 4 4 4 4 5 5 5 4 6 7 6 7 7
0 4 3 5 4 3 2 4 3 4 5 5 7 4 2 4 8 10 11 10 7 6 4 5 5 5 5 6 7 6 6 5 5 5 5 4 5 5 4 4 5 5 5 4 6 7 6 7 7
Wind_Direction
5 26 74 52 145 70 200 225 240 186 169 202 245 202 234 295 173 197 106 152 142 153 159 157 152 151 147 138 133 129 128 126 126 127 123 117 114 109 108 104 99 96 97 98 101 101 99 97 95
143 128 55 95 133 173 217 203 208 187 305 304 223 205 238 263 19 109 132 180 154 153 159 160 152 151 149 140 137 137 138 134 133 130 126 124 120 115 112 108 102 98 99 101 105 103 100 97 96
124 62 118 141 157 204 197 189 170 184 335 11 72 345 344 317 8 169 204 154 153 155 157 160 150 151 146 151 147 143 136 135 133 125 120 124 125 125 118 113 105 101 105 108 108 103 98 89 88
162 66 81 168 212 234 199 158 154 150 27 36 332 84 19 20 255 221 148 155 150 152 157 151 149 147 148 150 135 137 141 138 130 125 126 127 123 117 130 118 109 107 110 115 112 106 95 85 91
56 89 150 189 222 238 210 161 148 95 117 351 7 8 43 25 355 140 147 155 154 151 154 150 150 147 143 141 139 152 148 139 139 138 133 126 128 124 121 123 118 115 114 119 118 112 100 90 90
128 197 186 207 211 190 195 168 151 101 189 13 37 348 50 357 98 136 149 150 155 153 155 156 147 146 145 149 152 147 148 153 146 132 118 123 123 128 127 133 126 122 118 123 125 118 105 94 92
224 176 197 218 214 217 198 153 153 132 152 79 130 39 349 32 35 139 148 150 153 162 154 158 159 148 141 146 144 136 128 120 119 116 119 109 102 129 145 146 137 132 124 118 125 121 110 96 91
129 175 190 214 205 231 208 166 151 154 179 103 95 45 3 35 138 114 142 161 159 163 160 158 154 155 158 153 134 135 131 129 131 130 130 129 122 117 156 145 145 137 124 115 112 112 103 94 88
133 183 212 214 181 205 183 200 122 75 121 45 110 95 326 291 169 125 136 141 160 173 169 156 156 156 155 149 147 141 139 134 131 127 122 117 125 141 153 145 142 137 136 135 126 118 115 107 99
188 217 220 183 174 187 172 172 145 158 135 113 136 139 55 43 151 154 167 162 181 174 177 170 167 164 159 154 155 153 148 146 143 141 132 122 128 145 160 172 161 146 143 131 127 116 104 104 114
207 215 193 5 189 156 170 157 152 148 197 186 175 123 79 61 45 320 243 163 177 171 175 178 174 169 168 161 158 157 155 148 145 142 143 141 138 141 159 179 157 143 140 148 145 133 119 112 114
219 196 191 32 262 152 177 139 187 190 196 170 151 136 105 73 41 255 233 190 176 188 177 171 180 176 175 168 170 165 163 160 158 159 154 158 159 160 158 155 153 161 165 169 175 170 151 120 117
216 184 166 164 161 254 140 173 190 205 135 139 144 123 109 93 59 355 217 208 178 193 193 182 169 178 180 175 174 173 175 176 168 168 170 165 173 177 171 174 175 178 181 196 197 215 248 270 247
195 234 181 188 158 221 157 187 156 211 170 189 193 160 100 74 26 353 218 212 196 194 199 196 176 174 186 181 180 183 184 180 176 178 182 181 179 185 192 191 197 202 203 198 212 227 256 269 271
198 195 227 219 185 201 154 184 224 186 165 209 213 190 125 64 40 340 261 226 202 209 194 202 189 187 191 189 187 185 187 184 184 191 190 193 192 194 196 206 211 214 205 209 213 222 240 254 254
156 176 185 206 168 201 186 221 212 233 217 226 214 177 126 70 30 317 261 233 195 193 186 189 189 185 191 193 189 193 193 196 197 195 195 201 204 205 201 209 222 213 206 209 218 223 238 249 251
197 181 190 175 188 115 156 233 239 199 216 257 268 220 146 42 355 316 268 240 206 193 188 176 180 186 195 192 190 193 197 204 206 201 203 207 209 210 211 217 224 210 209 212 217 223 230 244 245
184 168 174 173 180 185 151 233 339 205 210 229 253 272 179 141 252 274 283 243 216 195 200 177 182 180 189 184 177 191 203 215 214 212 213 212 213 211 211 223 227 209 213 218 214 225 213 239 258
161 122 170 162 146 166 203 218 246 205 218 240 228 211 210 186 223 230 253 214 188 176 202 193 187 177 168 173 186 202 211 208 220 217 216 212 219 216 211 220 224 211 213 218 215 218 234 238 228
156 145 142 96 105 175 182 224 241 200 216 213 210 225 210 226 261 245 198 206 211 210 205 171 189 214 183 174 176 182 173 215 220 206 215 212 209 208 214 221 223 218 220 225 220 211 206 231 189
190 162 153 155 112 66 135 266 247 218 236 217 223 229 225 212 238 247 268 254 193 234 229 192 188 199 206 188 171 145 132 168 192 205 222 212 203 206 210 213 217 218 213 228 223 210 210 229 192
179 187 139 140 161 185 343 248 246 212 217 219 222 217 230 248 240 103 217 274 270 256 275 247 199 200 198 186 193 197 209 212 216 208 224 212 207 215 215 217 214 213 214 225 222 210 213 211 229
262 165 145 98 95 116 310 269 265 139 225 223 233 215 220 226 242 243 231 224 246 151 177 157 120 118 147 187 197 199 215 219 181 211 232 225 227 224 222 221 218 219 211 224 216 204 208 209 218
294 116 101 93 111 237 199 188 257 197 204 221 221 218 214 211 217 234 163 152 144 112 165 176 126 109 119 132 142 190 213 221 226 229 246 246 247 239 230 228 224 222 217 220 221 213 208 208 212
260 150 133 155 195 220 196 183 262 241 234 221 212 222 218 209 212 205 187 171 162 168 160 157 138 120 116 108 98 107 138 169 203 228 255 256 262 259 318 292 245 233 227 220 210 204 207 201 203
150 170 152 165 173 161 84 222 243 235 247 217 258 268 250 216 204 195 182 175 175 159 162 144 134 125 118 108 97 88 86 97 88 67 85 68 8 343 323 304 295 261 233 215 198 186 182 168 150
121 53 157 107 39 99 191 266 282 259 284 294 265 269 248 245 220 191 179 172 158 151 154 153 134 115 101 100 93 76 68 72 77 70 74 75 54 34 36 29 33 29 23 154 137 126 112 102 102
270 205 81 15 122 180 11 277 237 40 335 317 287 250 251 223 200 163 153 137 129 137 141 140 134 127 115 100 92 84 76 71 74 71 64 56 49 44 61 68 68 61 52 47 84 81 95 107 98
180 193 61 101 68 139 141 260 212 212 287 289 292 273 255 192 163 138 114 101 114 124 134 131 125 125 119 111 105 96 81 72 73 74 65 61 55 46 58 62 72 72 78 88 106 109 119 125 114
43 227 150 123 166 61 107 280 183 226 263 276 291 281 200 171 146 134 129 131 125 118 119 126 125 123 122 117 115 104 99 84 70 60 51 53 64 52 58 78 81 75 75 81 111 117 116 116 114